This is the latest recevied weather packets stored in our database for station/object KC4GS-13. If no packets are shown the sender has not sent any weather packets the latest 10 day(s).
| Time | Temp. | Humidity | Pressure | Rain* | Wind** | Luminosity | Snow |
|---|---|---|---|---|---|---|---|
| 1777726258 | 13.89° C | 98% | 1013.2 hPa | 0 mm | - | 75 W/m² | - |
| 1777725955 | 13.89° C | 98% | 1013.6 hPa | 0 mm | - | 74 W/m² | - |
| 1777725652 | 13.89° C | 98% | 1013.2 hPa | 0 mm | - | 59 W/m² | - |
| 1777725350 | 13.89° C | 98% | 1012.9 hPa | 0 mm | - | 49 W/m² | - |
| 1777725046 | 13.89° C | 98% | 1012.5 hPa | 0 mm | - | 62 W/m² | - |
| 1777724743 | 13.89° C | 98% | 1012.6 hPa | 1.78 mm | - | 48 W/m² | - |
| 1777724441 | 13.33° C | 98% | 1012.4 hPa | 1.78 mm | - | 46 W/m² | - |
| 1777724138 | 13.33° C | 98% | 1012.8 hPa | 0 mm | - | 28 W/m² | - |
| 1777723835 | 13.33° C | 98% | 1012.9 hPa | 0 mm | - | 25 W/m² | - |
| 1777723531 | 13.33° C | 98% | 1013.4 hPa | 1.27 mm | - | 18 W/m² | - |
| 1777723228 | 13.33° C | 98% | 1013.6 hPa | 3.05 mm | - | 12 W/m² | - |
| 1777722926 | 12.78° C | 98% | 1013.6 hPa | 4.83 mm | - | 23 W/m² | - |
| 1777722622 | 12.78° C | 98% | 1013.6 hPa | 94.23 mm | - | 8 W/m² | - |
| 1777722319 | 12.78° C | 98% | 1013.6 hPa | 92.96 mm | - | 3 W/m² | - |
| 1777722016 | 12.78° C | 98% | 1013.4 hPa | 3.05 mm | - | 2 W/m² | - |
| 1777721713 | 12.78° C | 98% | 1013.5 hPa | 1.27 mm | - | 3 W/m² | - |
| 1777721412 | 12.78° C | 98% | 1013.3 hPa | 0 mm | - | 5 W/m² | - |
| 1777721109 | 12.78° C | 98% | 1013.3 hPa | 1.78 mm | - | 3 W/m² | - |
| 1777720807 | 12.78° C | 98% | 1013.1 hPa | 1.78 mm | - | 4 W/m² | - |
| 1777720504 | 12.78° C | 98% | 1013 hPa | 0 mm | - | 1 W/m² | - |
| 1777720201 | 12.78° C | 97% | 1012.7 hPa | 1.27 mm | - | 3 W/m² | - |
| 1777719898 | 12.78° C | 97% | 1012.3 hPa | 0 mm | - | 1 W/m² | - |
| 1777719596 | 12.78° C | 97% | 1012.2 hPa | 0 mm | - | 1 W/m² | - |
| 1777719293 | 12.78° C | 97% | 1012.5 hPa | 0 mm | - | 0 W/m² | - |
| 1777718991 | 12.78° C | 97% | 1012.6 hPa | 0 mm | - | 0 W/m² | - |
* Rain latest hour (hover to see other rain measurements)
** Current wind speed in m/s (hover to see current wind gust speed)